Tracking 30703 objects as of 13-Jun-2025
HD Live streaming from Space Station
objects crossing your sky now

SIRIO

Track SIRIO now!
SIRIO is classified as:


NORAD ID: 10294
Int'l Code: 1977-080A
Perigee: 35,760.6 km
Apogee: 35,825.8 km
Inclination: 8.1 °
Period: 1,436.1 minutes
Semi major axis: 42164 km
RCS: 0.14 m2 (medium)
Launch date: August 25, 1977
Source: Italy (IT)
Launch site: AIR FORCE EASTERN TEST RANGE (AFETR)
Your satellite tracking list
Your tracking list is empty




NASA's NSSDC Master Catalog

Two Line Element Set (TLE):
1 10294U 77080A   25162.79874876 -.00000071  00000-0  00000-0 0  9999
2 10294   8.0525 302.0422 0007732 154.3186 166.3990  1.00273761114207
Source of the keplerian elements: AFSPC